Location: Bluff Heights
(33.7692°N, 118.1592°W)
Time: 10:49:07
(UTC+00:00)

Vanguard 3 - All Passes

Search period start: 03 August 2021 00:00
Search period end: 13 August 2021 00:00
Orbit: 508 x 3261 km, 33.4° (Epoch: 02 August)

Date Brightness Start Highest point End Pass type
(mag) Time Alt. Az. Time Alt. Az. Time Alt. Az.
03 Aug - 01:05:25 10° WSW 01:18:13 75° SSE 01:37:48 10° E daylight
03 Aug - 03:18:30 10° W 03:35:13 89° S 03:55:24 10° E visible
03 Aug - 05:33:37 10° WNW 05:52:57 73° SSW 06:10:39 10° ESE visible
03 Aug - 07:51:01 10° W 08:08:20 40° SW 08:21:51 10° SSE visible
03 Aug - 21:44:14 10° S 21:50:31 20° SE 21:59:09 10° E daylight
03 Aug - 23:51:41 10° SW 00:02:15 59° SSE 00:19:39 10° ENE daylight
04 Aug - 02:03:22 10° W 02:17:41 87° S 02:37:59 10° E daylight
04 Aug - 04:17:22 10° W 04:35:20 83° SSW 04:54:50 10° ESE visible
04 Aug - 06:33:13 10° WNW 06:52:09 55° SSW 07:08:17 10° SE visible
04 Aug - 08:53:23 10° W 09:05:57 22° SW 09:16:14 10° S visible
04 Aug - 22:38:52 10° SSW 22:47:21 40° SE 23:01:10 10° E daylight
05 Aug - 00:48:58 10° WSW 01:00:53 79° SSE 01:20:02 10° E daylight
05 Aug - 03:01:49 10° W 03:17:38 88° S 03:38:00 10° E visible
05 Aug - 05:16:27 10° WNW 05:35:08 70° SSW 05:53:29 10° SE visible
05 Aug - 07:33:41 10° W 07:50:32 36° SW 08:04:32 10° SSE visible
05 Aug - 21:27:24 10° S 21:33:24 21° SE 21:41:58 10° E daylight
05 Aug - 23:35:17 10° SW 23:45:03 63° SSE 00:01:49 10° ENE daylight
06 Aug - 01:46:55 10° W 02:00:18 88° S 02:20:22 10° E daylight
06 Aug - 04:00:31 10° W 04:17:38 81° SSW 04:37:30 10° ESE visible
06 Aug - 06:15:58 10° WNW 06:34:17 51° SW 06:51:00 10° SE visible
06 Aug - 08:36:38 10° W 08:48:15 19° SW 08:58:18 10° S visible
06 Aug - 22:22:26 10° SSW 22:30:16 43° SE 22:43:28 10° E daylight
07 Aug - 00:32:38 10° WSW 00:43:41 81° SSE 01:02:14 10° E daylight
07 Aug - 02:45:14 10° W 03:00:07 87° S 03:20:29 10° E visible
07 Aug - 04:59:26 10° WNW 05:17:18 66° SSW 05:36:07 10° SE visible
07 Aug - 07:16:34 10° W 07:32:41 33° SW 07:46:57 10° SSE visible
07 Aug - 21:10:43 10° S 21:16:24 23° SE 21:24:45 10° E daylight
07 Aug - 23:19:00 10° SW 23:28:01 67° SSE 23:43:59 10° ENE daylight
08 Aug - 01:30:32 10° W 01:43:01 89° S 02:02:38 10° E daylight
08 Aug - 03:43:45 10° W 03:59:57 78° SSW 04:20:02 10° ESE visible
08 Aug - 05:58:53 10° W 06:16:23 47° SW 06:33:29 10° SSE visible
08 Aug - 08:20:18 10° W 08:30:33 17° SW 08:39:52 10° SSW visible
08 Aug - 22:06:06 10° SW 22:13:19 46° SE 22:25:49 10° E daylight
09 Aug - 00:16:24 10° WSW 00:26:38 84° SSE 00:44:24 10° E daylight
09 Aug - 02:28:43 10° W 02:42:40 86° S 03:02:51 10° ESE daylight
09 Aug - 04:42:32 10° WNW 04:59:29 61° SSW 05:18:34 10° SE visible
09 Aug - 06:59:40 10° W 07:14:51 29° SW 07:29:06 10° S visible
09 Aug - 20:54:11 10° S 20:59:31 25° SE 21:07:32 10° E daylight
09 Aug - 23:02:50 10° WSW 23:11:06 70° SSE 23:26:10 10° E daylight
10 Aug - 01:14:14 10° W 01:25:51 89° S 01:44:53 10° E daylight
10 Aug - 03:27:05 10° W 03:42:19 74° SSW 04:02:23 10° ESE visible
10 Aug - 05:41:58 10° W 05:58:31 43° SW 06:15:44 10° SSE visible
10 Aug - 08:04:38 10° WSW 08:12:53 14° SW 08:20:45 10° SSW visible
10 Aug - 21:49:52 10° SW 21:56:30 49° SSE 22:08:12 10° E daylight
11 Aug - 00:00:15 10° W 00:09:41 86° S 00:26:34 10° E daylight
11 Aug - 02:12:17 10° W 02:25:18 83° SSW 02:45:07 10° ESE daylight
11 Aug - 04:25:46 10° W 04:41:43 57° SSW 05:00:49 10° SE visible
11 Aug - 06:43:02 10° W 06:57:04 26° SW 07:10:55 10° S visible
11 Aug - 20:37:46 10° SSW 20:42:45 27° SE 20:50:23 10° E daylight
11 Aug - 22:46:43 10° WSW 22:54:20 74° SSE 23:08:25 10° E daylight
12 Aug - 00:58:01 10° W 01:08:46 88° S 01:27:04 10° E daylight
12 Aug - 03:10:31 10° W 03:24:45 69° SSW 03:44:36 10° ESE visible
12 Aug - 05:25:15 10° W 05:40:43 38° SW 05:57:45 10° SSE visible
12 Aug - 07:50:25 10° WSW 07:55:19 11° SW 08:00:09 10° SW visible
12 Aug - 19:29:06 10° SE 19:29:34 10° SE 19:30:03 10° SE daylight
12 Aug - 21:33:43 10° SW 21:39:49 53° SSE 21:50:41 10° E daylight
